Location: Unspecified
(56.5167°N, 0.0000°E)
Time: 02:43:18
(UTC+02:00)

CZ-3 Stage 3 - Visible Passes

Search period start: 16 July 2018 00:00
Search period end: 26 July 2018 00:00
Orbit: 391 x 34803 km, 30.7° (Epoch: 15 July)

Date Brightness Start Highest point End Pass type
(mag) Time Alt. Az. Time Alt. Az. Time Alt. Az.
17 Jul 7.3 00:10:12 10° S 07:58:44 43° SSW 08:20:55 10° SE daylight
17 Jul 8.1 21:36:45 10° SE 03:45:45 48° SSE 04:43:40 10° ESE daylight
18 Jul 8.7 21:15:32 10° E 23:47:59 23° E 00:51:28 10° E visible
19 Jul 7.2 23:56:52 10° S 07:48:13 43° SSW 08:11:03 10° SSE daylight
20 Jul 8.0 21:21:39 10° SE 03:34:16 49° SSE 04:33:47 10° ESE visible
21 Jul 8.7 20:59:46 10° E 23:36:41 24° E 00:41:40 10° E visible
22 Jul 7.2 23:43:41 10° S 07:37:36 43° SW 08:01:07 10° SSE daylight
23 Jul 8.0 21:06:40 10° SE 03:22:40 49° SSE 04:23:50 10° ESE visible
24 Jul 8.7 20:44:06 10° E 23:25:18 24° E 00:31:46 10° E visible
